• In Belarus
  • List of Countries
  • For 7 days
  • Water Temperature
  • Satellite Maps
  • Weather Map
  • Weather Widgets
  • user-avatar
    Login

    Hourly Weather Chumal'ovo

    Today, 19 February, Monday

    Time Temperature Precipitation Wind Pressure Humidity
    00:00 -1°C° 0 mm 1 mps 735 mmHg 80%
    01:00 -2°C° 0 mm 1 mps 735 mmHg 80%
    02:00 -2°C° 0 mm 1 mps 735 mmHg 82%
    03:00 -2°C° 0 mm 1 mps 735 mmHg 81%
    04:00 -2°C° 0 mm 1 mps 735 mmHg 81%
    05:00 -3°C° 0 mm 1 mps 735 mmHg 79%
    06:00 -3°C° 0 mm 0 mps 734 mmHg 78%
    07:00 -3°C° 0 mm 0 mps 735 mmHg 80%
    08:00 -2°C° 0 mm 1 mps 735 mmHg 84%
    09:00 -2°C° 0 mm 1 mps 735 mmHg 85%
    10:00 -1°C° 0 mm 1 mps 735 mmHg 87%
    11:00 0°C° 0 mm 1 mps 735 mmHg 87%
    12:00 +1°C° 0 mm 1 mps 735 mmHg 82%
    13:00 +1°C° 0 mm 0 mps 735 mmHg 80%
    14:00 +1°C° 0 mm 0 mps 735 mmHg 79%
    15:00 +2°C° 0 mm 0 mps 735 mmHg 75%
    16:00 +3°C° 0 mm 1 mps 735 mmHg 74%
    17:00 +3°C° 0 mm 1 mps 734 mmHg 80%
    18:00 +2°C° 0 mm 1 mps 734 mmHg 81%
    19:00 +2°C° 0 mm 1 mps 734 mmHg 78%
    20:00 -1°C° 0 mm 2 mps 734 mmHg 79%
    21:00 -1°C° 0 mm 2 mps 734 mmHg 81%
    22:00 -1°C° 0 mm 2 mps 734 mmHg 83%
    23:00 -1°C° 0 mm 2 mps 734 mmHg 85%

    Tomorrow, 20 February, Tuesday

    Time Temperature Precipitation Wind Pressure Humidity
    00:00 -1°C° 0 mm 2 mps 734 mmHg 83%
    01:00 -1°C° 0 mm 2 mps 734 mmHg 81%
    02:00 -1°C° 0 mm 2 mps 734 mmHg 78%
    03:00 -1°C° 0 mm 2 mps 733 mmHg 77%
    04:00 -2°C° 0 mm 2 mps 733 mmHg 76%
    05:00 -1°C° 0 mm 3 mps 733 mmHg 74%
    06:00 -1°C° 0 mm 3 mps 732 mmHg 75%
    07:00 -1°C° 0 mm 3 mps 732 mmHg 76%
    08:00 -1°C° 0 mm 3 mps 732 mmHg 77%
    09:00 -1°C° 0 mm 3 mps 732 mmHg 76%
    10:00 -1°C° 0 mm 4 mps 732 mmHg 74%
    11:00 -1°C° 0 mm 5 mps 732 mmHg 73%
    12:00 -1°C° 0 mm 5 mps 732 mmHg 76%
    13:00 -1°C° 0 mm 6 mps 732 mmHg 81%
    14:00 -1°C° 0.1 mm 6 mps 731 mmHg 85%
    15:00 -1°C° 0.1 mm 6 mps 731 mmHg 88%
    16:00 0°C° 0.2 mm 5 mps 730 mmHg 94%
    17:00 -1°C° 0.3 mm 5 mps 730 mmHg 96%
    18:00 -1°C° 0.3 mm 5 mps 730 mmHg 96%
    19:00 -1°C° 0.2 mm 5 mps 730 mmHg 95%
    20:00 -2°C° 0.2 mm 6 mps 730 mmHg 95%
    21:00 -1°C° 0.3 mm 5 mps 730 mmHg 96%
    22:00 -2°C° 0.5 mm 6 mps 730 mmHg 96%
    23:00 -3°C° 0.8 mm 6 mps 730 mmHg 97%

    Day after tomorrow, 21 February, Wednesday

    Time Temperature Precipitation Wind Pressure Humidity
    00:00 -3°C° 1 mm 6 mps 730 mmHg 97%
    01:00 -3°C° 0.9 mm 6 mps 730 mmHg 97%
    02:00 -3°C° 0.6 mm 6 mps 730 mmHg 97%
    03:00 -2°C° 0.5 mm 5 mps 730 mmHg 96%
    04:00 -3°C° 0.4 mm 6 mps 729 mmHg 95%
    05:00 -3°C° 0.6 mm 6 mps 729 mmHg 96%
    06:00 -3°C° 1.1 mm 6 mps 729 mmHg 97%
    07:00 -3°C° 1.4 mm 6 mps 729 mmHg 98%
    08:00 -3°C° 1.3 mm 6 mps 729 mmHg 98%
    09:00 -3°C° 1.1 mm 6 mps 729 mmHg 98%
    10:00 -2°C° 0.9 mm 5 mps 730 mmHg 97%
    11:00 -1°C° 0.5 mm 5 mps 729 mmHg 96%
    12:00 -1°C° 0.2 mm 5 mps 729 mmHg 97%
    13:00 0°C° 0.1 mm 4 mps 729 mmHg 98%
    14:00 0°C° 0.1 mm 4 mps 729 mmHg 99%
    15:00 +1°C° 0 mm 4 mps 729 mmHg 100%
    16:00 0°C° 0.1 mm 4 mps 729 mmHg 100%
    17:00 +1°C° 0 mm 3 mps 728 mmHg 100%
    18:00 +1°C° 0.1 mm 3 mps 728 mmHg 100%
    19:00 0°C° 0.6 mm 3 mps 729 mmHg 100%
    20:00 0°C° 0.4 mm 3 mps 729 mmHg 100%
    21:00 0°C° 0.3 mm 3 mps 729 mmHg 100%
    22:00 0°C° 0.3 mm 3 mps 729 mmHg 100%
    23:00 -1°C° 0.2 mm 4 mps 729 mmHg 100%

    22 February, Thursday

    Time Temperature Precipitation Wind Pressure Humidity
    00:00 +1°C° 0 mm 3 mps 729 mmHg 92%
    01:00 0°C° 0 mm 4 mps 728 mmHg 89%
    02:00 0°C° 0 mm 3 mps 729 mmHg 88%
    03:00 -1°C° 0 mm 4 mps 728 mmHg 87%
    04:00 -1°C° 0 mm 4 mps 728 mmHg 86%
    05:00 -1°C° 0 mm 4 mps 728 mmHg 86%
    06:00 0°C° 0 mm 3 mps 728 mmHg 86%
    07:00 -1°C° 0 mm 4 mps 728 mmHg 85%
    08:00 -1°C° 0 mm 4 mps 728 mmHg 85%
    09:00 0°C° 0 mm 5 mps 728 mmHg 84%
    10:00 +1°C° 0 mm 5 mps 728 mmHg 81%
    11:00 +2°C° 0 mm 6 mps 728 mmHg 81%
    12:00 +3°C° 0 mm 6 mps 728 mmHg 82%
    13:00 +3°C° 0 mm 6 mps 728 mmHg 83%
    14:00 +2°C° 0.1 mm 5 mps 727 mmHg 91%

    23 February, Friday

    Time Temperature Precipitation Wind Pressure Humidity

    24 February, Saturday

    Time Temperature Precipitation Wind Pressure Humidity
    Show more